Time,TemperatureF,DewpointF,PressureIn,WindDirection,WindDirectionDegrees,WindSpeedMPH,WindSpeedGustMPH,Humidity,HourlyPrecipIn,Conditions,Clouds,dailyrainin,SolarRadiationWatts/m^2,SoftwareType,DateUTC
2013-11-30 00:00:00,41.0,36.0,30.21,North,355,2.0,-999.0,85,0.00,,,-99.99,-1.500000,,2013-11-30 08:00:00,
2013-11-30 00:42:00,41.0,36.0,30.21,North,355,2.0,-999.0,85,0.00,,,-99.99,-1.500000,,2013-11-30 08:42:00,
2013-11-30 00:52:00,41.0,36.0,30.21,North,355,2.0,-999.0,85,0.00,,,-99.99,-1.500000,,2013-11-30 08:52:00,
2013-11-30 01:00:00,44.0,36.0,30.21,North,11,2.0,-999.0,72,0.00,,,-99.99,-0.500000,,2013-11-30 09:00:00,
2013-11-30 01:43:00,44.0,36.0,30.21,North,11,2.0,-999.0,72,0.00,,,-99.99,-0.500000,,2013-11-30 09:43:00,
2013-11-30 01:53:00,44.0,36.0,30.21,North,11,2.0,-999.0,72,0.00,,,-99.99,-0.500000,,2013-11-30 09:53:00,
2013-11-30 02:00:00,44.0,36.0,30.22,NNW,345,2.0,-999.0,72,0.00,,,-99.99,-1.900000,,2013-11-30 10:00:00,
2013-11-30 02:42:00,44.0,36.0,30.22,NNW,345,2.0,-999.0,72,0.00,,,-99.99,-1.900000,,2013-11-30 10:42:00,
2013-11-30 02:53:00,44.0,36.0,30.22,NNW,345,2.0,-999.0,72,0.00,,,-99.99,-1.900000,,2013-11-30 10:53:00,
2013-11-30 03:00:00,43.0,35.0,30.23,North,350,5.0,-999.0,71,0.00,,,-99.99,-2.000000,,2013-11-30 11:00:00,
2013-11-30 03:42:00,43.0,35.0,30.23,North,350,5.0,-999.0,71,0.00,,,-99.99,-2.000000,,2013-11-30 11:42:00,
2013-11-30 03:52:00,43.0,35.0,30.23,North,350,5.0,-999.0,71,0.00,,,-99.99,-2.000000,,2013-11-30 11:52:00,
2013-11-30 04:00:00,44.0,34.0,30.23,North,7,6.0,-999.0,68,0.00,,,-99.99,-1.800000,,2013-11-30 12:00:00,
2013-11-30 04:42:00,44.0,34.0,30.23,North,7,6.0,-999.0,68,0.00,,,-99.99,-1.800000,,2013-11-30 12:42:00,
2013-11-30 04:52:00,44.0,34.0,30.23,North,7,6.0,-999.0,68,0.00,,,-99.99,-1.800000,,2013-11-30 12:52:00,
2013-11-30 05:00:00,45.0,33.0,30.23,NNE,21,5.0,-999.0,62,0.00,,,-99.99,-1.200000,,2013-11-30 13:00:00,
2013-11-30 05:42:00,45.0,33.0,30.23,NNE,21,5.0,-999.0,62,0.00,,,-99.99,-1.200000,,2013-11-30 13:42:00,
2013-11-30 05:52:00,45.0,33.0,30.23,NNE,21,5.0,-999.0,62,0.00,,,-99.99,-1.200000,,2013-11-30 13:52:00,
2013-11-30 06:00:00,44.0,33.0,30.23,NNW,331,2.0,-999.0,64,0.00,,,-99.99,-1.600000,,2013-11-30 14:00:00,
2013-11-30 06:42:00,44.0,33.0,30.23,NNW,331,2.0,-999.0,64,0.00,,,-99.99,-1.600000,,2013-11-30 14:42:00,
2013-11-30 06:52:00,44.0,33.0,30.23,NNW,331,2.0,-999.0,64,0.00,,,-99.99,-1.600000,,2013-11-30 14:52:00,
2013-11-30 07:00:00,45.0,32.0,30.23,North,9,6.0,-999.0,61,0.00,,,-99.99,-1.000000,,2013-11-30 15:00:00,
2013-11-30 07:43:00,45.0,32.0,30.23,North,9,6.0,-999.0,61,0.00,,,-99.99,-1.000000,,2013-11-30 15:43:00,
2013-11-30 07:54:00,45.0,32.0,30.23,North,9,6.0,-999.0,61,0.00,,,-99.99,-1.000000,,2013-11-30 15:54:00,
2013-11-30 08:00:00,47.0,32.0,30.24,NNE,12,5.0,-999.0,57,0.00,,,-99.99,26.799999,,2013-11-30 16:00:00,
2013-11-30 08:43:00,47.0,32.0,30.24,NNE,12,5.0,-999.0,57,0.00,,,-99.99,26.799999,,2013-11-30 16:43:00,
2013-11-30 08:53:00,47.0,32.0,30.24,NNE,12,5.0,-999.0,57,0.00,,,-99.99,26.799999,,2013-11-30 16:53:00,
2013-11-30 09:00:00,49.0,33.0,30.25,North,7,6.0,-999.0,53,0.00,,,-99.99,108.000000,,2013-11-30 17:00:00,
2013-11-30 09:42:00,49.0,33.0,30.25,North,7,6.0,-999.0,53,0.00,,,-99.99,108.000000,,2013-11-30 17:42:00,
2013-11-30 09:53:00,49.0,33.0,30.25,North,7,6.0,-999.0,53,0.00,,,-99.99,108.000000,,2013-11-30 17:53:00,
2013-11-30 10:00:00,55.0,35.0,30.26,NE,36,2.0,-999.0,47,0.00,,,-99.99,262.100006,,2013-11-30 18:00:00,
2013-11-30 10:42:00,55.0,35.0,30.26,NE,36,2.0,-999.0,47,0.00,,,-99.99,262.100006,,2013-11-30 18:42:00,
2013-11-30 10:52:00,55.0,35.0,30.26,NE,36,2.0,-999.0,47,0.00,,,-99.99,262.100006,,2013-11-30 18:52:00,
2013-11-30 11:00:00,60.0,36.0,30.25,NNE,26,2.0,-999.0,41,0.00,,,-99.99,359.299988,,2013-11-30 19:00:00,
2013-11-30 11:42:00,60.0,36.0,30.25,NNE,26,2.0,-999.0,41,0.00,,,-99.99,359.299988,,2013-11-30 19:42:00,
2013-11-30 11:52:00,60.0,36.0,30.25,NNE,26,2.0,-999.0,41,0.00,,,-99.99,359.299988,,2013-11-30 19:52:00,
2013-11-30 12:00:00,62.0,37.0,30.24,NNW,348,4.0,-999.0,39,0.00,,,-99.99,490.399994,,2013-11-30 20:00:00,
2013-11-30 12:42:00,62.0,37.0,30.24,NNW,348,4.0,-999.0,39,0.00,,,-99.99,490.399994,,2013-11-30 20:42:00,
2013-11-30 12:52:00,62.0,37.0,30.24,NNW,348,4.0,-999.0,39,0.00,,,-99.99,490.399994,,2013-11-30 20:52:00,
2013-11-30 13:00:00,63.0,37.0,30.22,SSE,157,2.0,-999.0,39,0.00,,,-99.99,311.600006,,2013-11-30 21:00:00,
2013-11-30 13:43:00,63.0,37.0,30.22,SSE,157,2.0,-999.0,39,0.00,,,-99.99,311.600006,,2013-11-30 21:43:00,
2013-11-30 13:53:00,63.0,37.0,30.22,SSE,157,2.0,-999.0,39,0.00,,,-99.99,311.600006,,2013-11-30 21:53:00,
2013-11-30 14:00:00,63.0,37.0,30.19,SW,219,1.0,-999.0,37,0.00,,,-99.99,265.200012,,2013-11-30 22:00:00,
2013-11-30 14:42:00,63.0,37.0,30.19,SW,219,1.0,-999.0,37,0.00,,,-99.99,265.200012,,2013-11-30 22:42:00,
2013-11-30 14:52:00,63.0,37.0,30.19,SW,219,1.0,-999.0,37,0.00,,,-99.99,265.200012,,2013-11-30 22:52:00,
2013-11-30 15:00:00,61.0,37.0,30.18,SSW,197,2.0,-999.0,41,0.00,,,-99.99,63.299999,,2013-11-30 23:00:00,
2013-11-30 15:42:00,61.0,37.0,30.18,SSW,197,2.0,-999.0,41,0.00,,,-99.99,63.299999,,2013-11-30 23:42:00,
2013-11-30 15:53:00,61.0,37.0,30.18,SSW,197,2.0,-999.0,41,0.00,,,-99.99,63.299999,,2013-11-30 23:53:00,
2013-11-30 16:00:00,59.0,38.0,30.19,SSE,147,1.0,-999.0,45,0.00,,,-99.99,30.200001,,2013-12-01 00:00:00,
2013-11-30 16:42:00,59.0,38.0,30.19,SSE,147,1.0,-999.0,45,0.00,,,-99.99,30.200001,,2013-12-01 00:42:00,
2013-11-30 16:52:00,59.0,38.0,30.19,SSE,147,1.0,-999.0,45,0.00,,,-99.99,30.200001,,2013-12-01 00:52:00,
2013-11-30 17:00:00,51.0,39.0,30.20,ENE,57,2.0,-999.0,61,0.00,,,-99.99,6.800000,,2013-12-01 01:00:00,
2013-11-30 17:42:00,51.0,39.0,30.20,ENE,57,2.0,-999.0,61,0.00,,,-99.99,6.800000,,2013-12-01 01:42:00,
2013-11-30 17:52:00,51.0,39.0,30.20,ENE,57,2.0,-999.0,61,0.00,,,-99.99,6.800000,,2013-12-01 01:52:00,
2013-11-30 18:00:00,46.0,38.0,30.21,West,275,0.0,-999.0,72,0.00,,,-99.99,-2.700000,,2013-12-01 02:00:00,
2013-11-30 18:42:00,46.0,38.0,30.21,West,275,0.0,-999.0,72,0.00,,,-99.99,-2.700000,,2013-12-01 02:42:00,
2013-11-30 18:52:00,46.0,38.0,30.21,West,275,0.0,-999.0,72,0.00,,,-99.99,-2.700000,,2013-12-01 02:52:00,
2013-11-30 19:00:00,-999.0,-99.9,30.20,NNE,19,0.0,-999.0,-999,0.00,,,-99.99,-1.300000,,2013-12-01 03:00:00,
2013-11-30 19:44:00,43.0,37.0,30.20,NNE,19,0.0,-999.0,78,0.00,,,-99.99,-1.300000,,2013-12-01 03:44:00,
2013-11-30 19:53:00,43.0,37.0,30.20,NNE,19,0.0,-999.0,78,0.00,,,-99.99,-1.300000,,2013-12-01 03:53:00,
2013-11-30 20:00:00,41.0,37.0,30.22,NW,306,0.0,-999.0,83,0.00,,,-99.99,-1.300000,,2013-12-01 04:00:00,
2013-11-30 20:52:00,41.0,37.0,30.22,NW,306,0.0,-999.0,83,0.00,,,-99.99,-1.300000,,2013-12-01 04:52:00,
2013-11-30 21:43:00,40.0,37.0,30.22,North,349,0.0,-999.0,87,0.00,,,-99.99,-1.100000,,2013-12-01 05:43:00,